DECAYED

NOAA 16 DEB, 41501 (Decayed)

Orbit data source: Space-Track

NOAA 16 DEB, 41501 was space debris in SSO originally from a launch on Thu, 21 Sep 2000 UTC launched from the Air Force Western Test Range (AFWTR). Debris objects in space refer to the collection of defunct objects orbiting the Earth. Examples of debris include non-operational satellites, rocket bodies, and fragments generated from explosions, collisions, or faulty payload assembly.

Not visible in the next 10 days
Identifier
41501, 2000-055LZ
Orbit
Decayed
Last TLE update
4 months ago
Origin
Manufacturer
Unknown
Mission
Decayed spacecraft
Bus & Motor
Unknown
Mass
Unknown
Launch date (UTC)
2000-09-21 (25 years ago)
Launch vehicle
Unknown
Launch site
Air Force Western Test Range (AFWTR)
Object type
Payload
Rocket body
Debris
Shape & HBR
Unknown
Radar Cross Section
Small (<0.1 m²)

Expand to show TLE details & history

TLE from 4 months ago
0 NOAA 16 DEB
1 41501U 00055LZ  25081.64114598  .02254453  00000-0  43141-1 0  9994
2 41501  98.6593 224.9102 0022054 288.1955  71.6889 15.44671819473654
Epoch: 2025-03-22T15:23Z
TLE epoch observation values (Epoch: 2025-03-22T15:23:15.012Z)
Latitude
-0.00002°
Longitude
173.71435°
Altitude
430.737 km
Speed
7.656 km/s
True Right ascension
14h 59m 38s
True Declination
0° 00' 00"
Sunlit
Object was in full shadow at epoch
Visualization orbit readout
Visualization observer readout
Orbital elements
Apogee altitude
444.347 km
Perigee altitude
414.321 km
Semi-major axis
6,807.471 km
Eccentricity
0.00221
Inclination
98.6593°
RAAN
224.9102°
Arg. of periapsis
288.1955°
True anomaly
Unknown
Mean anomaly
71.6889°
Eccentric anomaly
Unknown
Mean motion
3.86424 °/min
Orbital period
93.16 mins
BSTAR
0.043141
Loading maneuver chart data...
Loading SW <> Apogee altitude chart data...
Loading historical data...
Loading historical data...
Loading historical data...
Loading historical data...
Loading historical data...
Loading historical data...
Loading historical data...

NOAA 16 DEB Visibility

Observer location: undefined°, undefined°

This satellite is decayed
Span
Click to sort rows by Start time (UTC) header in descending order
Start Az.
Max El. time (UTC)
Max El. Az.
Max El.
End time (UTC)
End Az.
|